[[{"header":{"parameterUnit":"m.s-1","parameterCategory":1,"la1":30.2991,"la2":30.254,"lo1":-89.0895,"lo2":-89.0444,"dy":0.0017,"dx":0.0017,"nx":28,"ny":28,"refTime":"2024-08-28T03:00:00:Z","depth":0,"parameterNumber":2,"parameterNumberName":"U-component_of_WINDS"},"data":[0,0,0,0,0,0,0,0,0,0,0,0,0,0,0,0,0,0,0,0,0,0,0,0,0,0,0,0,0,0,0,0,0,0,0,0,0,0,0,0,0,0,0,0,0,0,0,0,0,0,0,0,0,0,0,0,0,0,-4.2139,-4.2139,0,-4.2101,-4.2101,-4.2101,-4.1979,-4.1976,-4.1974,-4.1971,-4.1934,-4.1936,-4.1937,0,0,0,0,0,0,0,0,0,0,0,0,0,-4.211,-4.2112,-4.2139,-4.2139,-4.2139,-4.2101,-4.2101,-4.21,-4.1979,-4.1976,-4.1973,-4.197,-4.1934,-4.1936,-4.1938,0,0,0,0,0,0,0,0,0,0,0,0,0,-4.2103,-4.2112,-4.214,-4.2074,-4.2067,-4.2102,-4.2101,-4.21,-4.198,-4.1976,-4.1972,-4.1968,-4.1933,-4.1935,-4.1938,-4.2033,0,0,-4.1945,-4.1946,0,0,0,0,0,0,0,0,-4.2104,-4.2104,-4.2084,-4.2078,-4.2071,-4.2041,-4.2077,-4.2078,-4.1981,-4.2013,-4.1971,-4.1966,-4.1973,-4.1972,-4.1974,-4.2032,-4.203,-4.1945,-4.1946,-4.1947,-4.1948,0,0,0,0,0,0,0,-4.2104,-4.2105,-4.2124,-4.2084,-4.2076,-4.2047,-4.2041,-4.2077,-4.2017,-4.201,-4.2001,-4.1998,-4.1969,-4.1972,-4.1972,-4.203,-4.1945,-4.1947,-4.1948,-4.1949,-4.2165,-4.217,0,0,0,0,0,0,-4.2114,-4.2106,-4.2126,-4.2123,-4.2078,-4.2051,-4.2045,-4.2055,-4.2016,-4.2006,-4.2002,-4.1993,-4.197,-4.1969,-4.197,-4.208,-4.1947,-4.195,-4.1951,-4.2161,-4.2166,-4.2171,0,0,0,0,0,0,-4.2114,-4.2117,-4.2127,-4.2112,-4.2111,-4.2056,-4.2068,-4.2056,-4.2059,-4.2009,-4.1998,-4.2016,-4.1967,-4.1967,-4.2019,-4.2077,-4.1951,-4.1953,-4.2156,-4.2163,-4.2169,-4.2301,0,0,0,0,0,0,-4.2113,-4.2117,-4.2152,-4.2114,-4.2113,-4.2176,-4.2071,-4.2058,-4.2063,-4.2051,-4.2019,-4.201,-4.1963,-4.2016,-4.2021,-4.2078,-4.1955,-4.2151,-4.2159,-4.2167,-4.2291,-4.2311,-4.2329,0,0,0,0,0,-4.2113,-4.2191,-4.2155,-4.2158,-4.2155,-4.2179,-4.2179,-4.2122,-4.2068,-4.2103,-4.2072,-4.2011,-4.207,-4.2022,-4.2027,-4.2086,-4.2147,-4.2157,-4.2166,-4.2283,-4.2307,-4.2328,0,0,0,0,0,0,-4.2238,-4.2185,-4.2144,-4.2212,-4.2201,-4.2159,-4.2201,-4.215,-4.2155,-4.2143,-4.2074,-4.2068,-4.213,-4.2113,-4.206,-4.2177,-4.2098,-4.211,-4.2186,-4.2209,-4.2227,-4.223,-4.1957,0,0,0,0,0,-4.2273,-4.2297,-4.2249,-4.2314,-4.2311,-4.2258,-4.2266,-4.2224,-4.221,-4.2205,-4.2177,-4.2167,-4.2182,-4.2195,-4.2207,-4.2288,-4.2281,-4.2331,-4.235,-4.2366,-4.2376,-4.2419,-4.2442,-4.2203,-4.2203,-4.2203,0,0,-4.2347,-4.2321,-4.234,-4.2339,-4.2325,-4.2352,-4.2254,-4.2286,-4.2306,-4.221,-4.2256,-4.2237,-4.222,-4.2288,-4.2316,-4.2276,-4.244,-4.2378,-4.2391,-4.2393,-4.2432,-4.2454,-4.2475,-4.221,-4.2209,-4.2208,0,0,-4.2495,-4.2477,-4.253,-4.2518,-4.2499,-4.2463,-4.2477,-4.2442,-4.2425,-4.2471,-4.24,-4.2423,-4.2452,-4.2443,-4.2443,-4.259,-4.2535,-4.2596,-4.2694,-4.2737,-4.2755,-4.2772,-4.2825,-4.2845,-4.2607,-4.2607,-4.2607,0,-4.2589,-4.2625,-4.2563,-4.26,-4.2603,-4.2517,-4.257,-4.2563,-4.2549,-4.2553,-4.2508,-4.2543,-4.2526,-4.2591,-4.2627,-4.263,-4.2643,-4.2599,-4.2757,-4.2773,-4.2788,-4.2837,-4.2858,-4.2615,-4.2614,-4.2613,-4.2612,0,-4.2742,-4.2769,-4.2814,-4.2803,-4.281,-4.2855,-4.2801,-4.2817,-4.2774,-4.2744,-4.2793,-4.277,-4.2776,-4.2789,-4.2748,-4.2849,-4.2824,-4.277,-4.2689,-4.2819,-4.2865,-4.2883,-4.2626,-4.2623,-4.2621,-4.2619,0,0,-4.2966,-4.2921,-4.2939,-4.2933,-4.2907,-4.2927,-4.2969,-4.2975,-4.299,-4.2984,-4.3018,-4.3046,-4.2995,-4.2995,-4.2952,-4.299,-4.311,-4.2931,-4.2929,-4.2965,-4.322,-4.3262,-4.3285,-4.3073,-4.3077,-4.3079,-4.3222,0,-4.3107,-4.3175,-4.3122,-4.32,-4.3225,-4.3145,-4.3182,-4.317,-4.3144,-4.3161,-4.3132,-4.3153,-4.3084,-4.3084,-4.3117,-4.3088,-4.316,-4.3077,-4.3105,-4.3107,-4.3112,-4.3309,-4.3352,-4.3488,-4.3239,-4.3242,-4.3245,0,-4.3279,-4.3281,-4.3362,-4.3332,-4.334,-4.3374,-4.3376,-4.3394,-4.338,-4.3358,-4.3359,-4.3307,-4.3347,-4.3269,-4.3325,-4.327,-4.3278,-4.3266,-4.327,-4.327,-4.3184,-4.3315,-4.353,-4.3551,-4.3272,-4.327,-4.3268,0,-4.3435,-4.3458,-4.351,-4.3508,-4.3473,-4.3499,-4.3486,-4.3468,-4.3476,-4.3478,-4.3482,-4.349,-4.3494,-4.3501,-4.3453,-4.3401,-4.3516,-4.3433,-4.3499,-4.3501,-4.3527,-4.3526,-4.3747,-4.3533,-4.3533,-4.3532,-4.3532,0,-4.3598,-4.3651,-4.358,-4.3612,-4.3669,-4.3608,-4.3667,-4.3646,-4.3631,-4.3658,-4.359,-4.3617,-4.3552,-4.3573,-4.3536,-4.3588,-4.359,-4.3574,-4.3564,-4.358,-4.3583,-4.3585,-4.3574,-4.3538,-4.3536,-4.3535,-4.3534,0,-4.3781,-4.3736,-4.3787,-4.3751,-4.3743,-4.3787,-4.3756,-4.3785,-4.3754,-4.379,-4.3795,-4.3747,-4.3768,-4.3721,-4.3736,-4.3711,-4.3786,-4.376,-4.379,-4.3783,-4.3852,-4.3846,-4.4082,-4.411,-4.3879,-4.3881,-4.3883,0,-4.3888,-4.3926,-4.3895,-4.3908,-4.3899,-4.3921,-4.3928,-4.3871,-4.3881,-4.387,-4.39,-4.3916,-4.3925,-4.3963,-4.393,-4.3942,-4.3916,-4.3998,-4.3917,-4.3933,-4.3918,-4.3916,-4.392,-4.4015,-4.4017,-4.402,-4.4021,0,-4.4082,-4.4058,-4.4071,-4.4077,-4.4088,-4.409,-4.4087,-4.4102,-4.404,-4.4057,-4.4077,-4.4085,-4.41,-4.4117,-4.4121,-4.4108,-4.4056,-4.4047,-4.4063,-4.4081,-4.4097,-4.4089,-4.3836,-4.4042,-4.404,-4.4038,-4.4037,-4.4036,-4.423,-4.4261,-4.4244,-4.4262,-4.4254,-4.4253,-4.4279,-4.4251,-4.4268,-4.4275,-4.424,-4.427,-4.4256,-4.4256,-4.425,-4.4272,-4.4235,-4.4258,-4.4264,-4.4271,-4.4282,-4.4094,-4.4273,-4.4272,-4.4271,-4.4271,-4.427,0,-4.4421,-4.4406,-4.4423,-4.4421,-4.4436,-4.4384,-4.4379,-4.4395,-4.4421,-4.4413,-4.4424,-4.4449,-4.4465,-4.4434,-4.4446,-4.447,-4.4446,-4.4475,-4.4473,-4.4471,-4.4314,-4.4299,-4.4494,-4.4494,-4.4494,-4.4494,-4.4494,-4.4494,-4.4522,-4.4572,-4.4547,-4.4593,-4.4578,-4.4606,-4.4608,-4.4607,-4.4601,-4.4631,-4.4644,-4.4624,-4.4607,-4.4618,-4.4631,-4.4621,-4.4629,-4.4667,-4.4649,-4.4504,-4.4482,-4.4461,-4.4447,-4.4669,-4.4669,-4.4804,-4.4805,-4.4806]},{"header":{"parameterUnit":"m.s-1","parameterCategory":1,"la1":30.2991,"la2":30.254,"lo1":-89.0895,"lo2":-89.0444,"dy":0.0017,"dx":0.0017,"nx":28,"ny":28,"refTime":"2024-08-28T03:00:00:Z","depth":0,"parameterNumber":3,"parameterNumberName":"V-component_of_WINDS"},"data":[0,0,0,0,0,0,0,0,0,0,0,0,0,0,0,0,0,0,0,0,0,0,0,0,0,0,0,0,0,0,0,0,0,0,0,0,0,0,0,0,0,0,0,0,0,0,0,0,0,0,0,0,0,0,0,0,0,0,-0.2234,-0.2234,0,-0.2204,-0.2203,-0.2203,-0.2182,-0.2182,-0.2182,-0.2182,-0.2151,-0.215,-0.2149,0,0,0,0,0,0,0,0,0,0,0,0,0,-0.2275,-0.2274,-0.2234,-0.2234,-0.2234,-0.2204,-0.2203,-0.2203,-0.2182,-0.2182,-0.2182,-0.2182,-0.2151,-0.215,-0.2149,0,0,0,0,0,0,0,0,0,0,0,0,0,-0.2252,-0.2274,-0.2235,-0.222,-0.2218,-0.2204,-0.2203,-0.2203,-0.2182,-0.2182,-0.2182,-0.2182,-0.2151,-0.215,-0.2149,-0.2147,0,0,-0.2146,-0.2145,0,0,0,0,0,0,0,0,-0.2253,-0.2251,-0.2222,-0.2221,-0.2219,-0.2196,-0.2206,-0.2184,-0.2182,-0.2196,-0.2182,-0.2181,-0.2166,-0.2164,-0.2159,-0.2146,-0.2144,-0.2146,-0.2145,-0.2145,-0.2144,0,0,0,0,0,0,0,-0.2255,-0.2252,-0.2222,-0.2222,-0.222,-0.2214,-0.2211,-0.2202,-0.2183,-0.2195,-0.2193,-0.219,-0.2165,-0.216,-0.2158,-0.2144,-0.2146,-0.2145,-0.2144,-0.2144,-0.2126,-0.2126,0,0,0,0,0,0,-0.2259,-0.2253,-0.2223,-0.2221,-0.2236,-0.2214,-0.221,-0.2204,-0.2183,-0.2179,-0.219,-0.2189,-0.2161,-0.2159,-0.2156,-0.2152,-0.2145,-0.2144,-0.2143,-0.2126,-0.2126,-0.2126,0,0,0,0,0,0,-0.226,-0.2256,-0.2224,-0.2237,-0.2232,-0.2213,-0.2207,-0.2203,-0.2198,-0.2179,-0.2175,-0.2188,-0.2161,-0.2158,-0.2149,-0.215,-0.2143,-0.2142,-0.2126,-0.2126,-0.2126,-0.2143,0,0,0,0,0,0,-0.2261,-0.2257,-0.2256,-0.2237,-0.2232,-0.2218,-0.2207,-0.2203,-0.2196,-0.2194,-0.2176,-0.2173,-0.2161,-0.2151,-0.2148,-0.2149,-0.2142,-0.2126,-0.2126,-0.2126,-0.2142,-0.2144,-0.2145,0,0,0,0,0,-0.2263,-0.2263,-0.2256,-0.2253,-0.2231,-0.2218,-0.2215,-0.2201,-0.2196,-0.2195,-0.2183,-0.2173,-0.2151,-0.215,-0.2147,-0.2147,-0.2125,-0.2126,-0.2126,-0.2142,-0.2143,-0.2145,0,0,0,0,0,0,-0.2283,-0.226,-0.2253,-0.2247,-0.2234,-0.2215,-0.2213,-0.2204,-0.2193,-0.2192,-0.2175,-0.2171,-0.2164,-0.2154,-0.2154,-0.2143,-0.2137,-0.2137,-0.215,-0.2151,-0.2153,-0.2155,-0.2141,0,0,0,0,0,-0.2287,-0.2279,-0.2259,-0.2255,-0.225,-0.2232,-0.2227,-0.2216,-0.2203,-0.2198,-0.2185,-0.2173,-0.2163,-0.2156,-0.2146,-0.2141,-0.2136,-0.2139,-0.2141,-0.2142,-0.2142,-0.2137,-0.2138,-0.2127,-0.2127,-0.2127,0,0,-0.2295,-0.2281,-0.2277,-0.2259,-0.2249,-0.224,-0.2228,-0.222,-0.2214,-0.2197,-0.2188,-0.2178,-0.2162,-0.2155,-0.2151,-0.2147,-0.2143,-0.2142,-0.2143,-0.2143,-0.2137,-0.2138,-0.2139,-0.2128,-0.2127,-0.2127,0,0,-0.2305,-0.2294,-0.2289,-0.2278,-0.2262,-0.225,-0.2249,-0.2231,-0.2223,-0.2213,-0.22,-0.2192,-0.2175,-0.2164,-0.2157,-0.2161,-0.2151,-0.2158,-0.2165,-0.2161,-0.2161,-0.2162,-0.2163,-0.2163,-0.2158,-0.2158,-0.2158,0,-0.2317,-0.2304,-0.2288,-0.228,-0.2272,-0.2256,-0.225,-0.2241,-0.2222,-0.2217,-0.2213,-0.219,-0.2179,-0.2168,-0.2169,-0.2164,-0.2161,-0.216,-0.2163,-0.2163,-0.2163,-0.2164,-0.2164,-0.2159,-0.2159,-0.2159,-0.2159,0,-0.2319,-0.231,-0.2308,-0.2289,-0.2281,-0.2275,-0.2258,-0.2251,-0.2241,-0.223,-0.2219,-0.2205,-0.2191,-0.2187,-0.2178,-0.2175,-0.2173,-0.2166,-0.2159,-0.2165,-0.2165,-0.2166,-0.216,-0.216,-0.2159,-0.2159,0,0,-0.2342,-0.2314,-0.2313,-0.2304,-0.2284,-0.2277,-0.2269,-0.2255,-0.2249,-0.2236,-0.2229,-0.2214,-0.2207,-0.2199,-0.2188,-0.2184,-0.2186,-0.2177,-0.2176,-0.2179,-0.2181,-0.2186,-0.2186,-0.218,-0.218,-0.218,-0.2182,0,-0.2349,-0.2334,-0.2319,-0.2309,-0.23,-0.2283,-0.2276,-0.2263,-0.2252,-0.2242,-0.223,-0.2219,-0.2211,-0.2205,-0.2201,-0.2187,-0.2187,-0.2187,-0.2173,-0.2172,-0.2177,-0.2186,-0.2192,-0.2194,-0.2182,-0.2182,-0.2182,0,-0.2355,-0.2342,-0.2331,-0.2311,-0.2306,-0.2301,-0.2285,-0.2276,-0.2261,-0.2252,-0.2242,-0.223,-0.222,-0.2214,-0.22,-0.2201,-0.2194,-0.2186,-0.2186,-0.2184,-0.2177,-0.2184,-0.2195,-0.2195,-0.2182,-0.2182,-0.2182,0,-0.2372,-0.2352,-0.2343,-0.2335,-0.2312,-0.2308,-0.2297,-0.2281,-0.2273,-0.226,-0.2254,-0.224,-0.2232,-0.2221,-0.2206,-0.2203,-0.2193,-0.2186,-0.2185,-0.2186,-0.2184,-0.2185,-0.2194,-0.218,-0.218,-0.218,-0.218,0,-0.2381,-0.2375,-0.235,-0.2344,-0.2336,-0.2319,-0.2311,-0.23,-0.2285,-0.2277,-0.2261,-0.2254,-0.2233,-0.2223,-0.2211,-0.22,-0.2197,-0.219,-0.2187,-0.2191,-0.2192,-0.2186,-0.2186,-0.218,-0.218,-0.218,-0.218,0,-0.2399,-0.2382,-0.2371,-0.2348,-0.2342,-0.2338,-0.2319,-0.2312,-0.2299,-0.2288,-0.2285,-0.2265,-0.2251,-0.2234,-0.2216,-0.2208,-0.2198,-0.2194,-0.2204,-0.2202,-0.2202,-0.2202,-0.2208,-0.2207,-0.2195,-0.2195,-0.2195,0,-0.2406,-0.24,-0.2377,-0.237,-0.236,-0.2349,-0.234,-0.2322,-0.2313,-0.2294,-0.229,-0.2275,-0.2262,-0.2242,-0.2225,-0.2211,-0.2205,-0.2208,-0.2203,-0.2207,-0.2204,-0.2205,-0.2204,-0.221,-0.221,-0.221,-0.221,0,-0.2419,-0.241,-0.2398,-0.2383,-0.2373,-0.236,-0.2346,-0.2341,-0.232,-0.2311,-0.2297,-0.2287,-0.2267,-0.2253,-0.2236,-0.2225,-0.2214,-0.2212,-0.2211,-0.2215,-0.2221,-0.2217,-0.2207,-0.2212,-0.2212,-0.2211,-0.2211,-0.2211,-0.2431,-0.2425,-0.2407,-0.2394,-0.2382,-0.2369,-0.2361,-0.2347,-0.2335,-0.2317,-0.2307,-0.2293,-0.2276,-0.2252,-0.2241,-0.2229,-0.2225,-0.2224,-0.2224,-0.2224,-0.2225,-0.2223,-0.2226,-0.2226,-0.2226,-0.2226,-0.2226,0,-0.2443,-0.243,-0.2418,-0.2399,-0.2388,-0.2378,-0.2362,-0.2354,-0.2342,-0.2326,-0.2314,-0.2297,-0.2282,-0.2264,-0.2248,-0.2242,-0.2237,-0.2239,-0.2239,-0.2236,-0.223,-0.2232,-0.2243,-0.2243,-0.2243,-0.2243,-0.2243,-0.2243,-0.2448,-0.2437,-0.2426,-0.2409,-0.2396,-0.2382,-0.2373,-0.2361,-0.2349,-0.2331,-0.2318,-0.2306,-0.2289,-0.2272,-0.2257,-0.2252,-0.2247,-0.225,-0.2244,-0.2238,-0.2237,-0.2235,-0.2237,-0.225,-0.225,-0.2251,-0.2251,-0.2251]}]]